Weather History for KOCQ - July, 2013

Change the Weather History Date:

Monday, July 22, 2013

  Actual Average Record
Temperature  
Mean Temperature 67 °F -  
Max Temperature 84 °F 80 °F 93 °F (2014)
Min Temperature 50 °F 56 °F 50 °F (2013)
Cooling Degree Days 2    
Growing Degree Days 17 (Base 50)    
Moisture  
Dew Point 62 °F    
Average Humidity 80    
Maximum Humidity 99    
Minimum Humidity 51    
Precipitation  
Precipitation 0.03 in - - ()
Sea Level Pressure  
Sea Level Pressure 29.76 in    
Wind  
Wind Speed 3 mph (SSW)    
Max Wind Speed 14 mph    
Max Gust Speed 21 mph    
Visibility 10 miles    
Events      
Averages and records for this station are not official NWS values.
T = Trace of Precipitation, MM = Missing Value Source: NWS Daily Summary

Daily Weather History Graph

Daily Weather History Graph

Search for Another Location

Airport or City:

Trip Planner

Search our weather history database for the weather conditions in past years. The results will help you decide how hot, cold, wet, or windy it might be!

Date:

Astronomy

Jul. 22, 2013 Rise Set
Actual Time 5:26 AM CDT 8:28 PM CDT
Civil Twilight 4:51 AM CDT 9:03 PM CDT
Nautical Twilight 4:07 AM CDT 9:48 PM CDT
Astronomical Twilight 3:13 AM CDT 10:41 PM CDT
Moon 8:10 PM CDT (7/22) 5:25 AM CDT (7/22)
Length of Visible Light 16h 11m
Length of Day
15h 02m
Full, 100% of the Moon is Illuminated
Jul 22
Full
Jul 22
Full
Jul 29
Last Quarter
Aug 6
New
Aug 14
First Quarter

Hourly Weather History & Observations

Time (CDT) Temp. Heat Index Dew Point Humidity Pressure Visibility Wind Dir Wind Speed Gust Speed Precip Events Conditions
12:15 AM 53.4 °F - 52.7 °F 97% 29.92 in 10.0 mi Calm Calm - N/A   Clear
12:35 AM 54.1 °F - 53.8 °F 99% 29.92 in 10.0 mi Calm Calm - N/A   Clear
12:55 AM 53.4 °F - 52.9 °F 98% 29.92 in 10.0 mi Calm Calm - N/A   Clear
1:15 AM 53.2 °F - 52.9 °F 99% 29.91 in 10.0 mi Calm Calm - N/A   Clear
1:35 AM 52.7 °F - 52.3 °F 99% 29.90 in 10.0 mi Calm Calm - N/A   Clear
1:55 AM 52.5 °F - 51.6 °F 97% 29.89 in 10.0 mi Calm Calm - N/A   Clear
2:15 AM 52.3 °F - 51.8 °F 98% 29.88 in 10.0 mi Calm Calm - N/A   Clear
2:35 AM 52.3 °F - 51.4 °F 97% 29.87 in 10.0 mi Calm Calm - N/A   Clear
2:55 AM 52.0 °F - 51.1 °F 97% 29.87 in 10.0 mi Calm Calm - N/A   Clear
3:15 AM 52.3 °F - 51.8 °F 98% 29.88 in 10.0 mi Calm Calm - N/A   Clear
3:35 AM 52.2 °F - 51.4 °F 97% 29.88 in 10.0 mi Calm Calm - N/A   Clear
3:55 AM 52.0 °F - 51.3 °F 97% 29.88 in 10.0 mi Calm Calm - N/A   Clear
4:15 AM 52.2 °F - 51.6 °F 98% 29.87 in 10.0 mi Calm Calm - N/A   Clear
4:35 AM 52.7 °F - 52.0 °F 97% 29.86 in 10.0 mi Calm Calm - N/A   Clear
4:55 AM 51.1 °F - 50.4 °F 97% 29.85 in 10.0 mi Calm Calm - N/A   Clear
5:15 AM 50.7 °F - 50.0 °F 97% 29.84 in 10.0 mi Calm Calm - N/A   Clear
5:35 AM 51.1 °F - 50.5 °F 98% 29.84 in 10.0 mi Calm Calm - N/A   Clear
5:55 AM 51.6 °F - 51.1 °F 98% 29.85 in 10.0 mi Calm Calm - N/A   Clear
6:15 AM 52.5 °F - 51.8 °F 97% 29.85 in 10.0 mi Calm Calm - N/A   Clear
6:35 AM 54.9 °F - 54.3 °F 98% 29.84 in 10.0 mi Calm Calm - N/A   Clear
6:55 AM 57.0 °F - 56.1 °F 97% 29.85 in 10.0 mi Calm Calm - N/A   Clear
7:15 AM 59.2 °F - 57.7 °F 95% 29.85 in 10.0 mi Calm Calm - N/A   Scattered Clouds
7:35 AM 62.8 °F - 59.9 °F 90% 29.84 in 10.0 mi Calm Calm - N/A   Overcast
7:55 AM 63.5 °F - 60.8 °F 91% 29.84 in 10.0 mi Calm Calm - N/A   Mostly Cloudy
8:35 AM 66.9 °F - 62.1 °F 84% 29.83 in 10.0 mi Calm Calm - N/A   Clear
8:55 AM 68.7 °F - 63.0 °F 82% 29.81 in 10.0 mi SSE 4.6 mph - N/A   Clear
9:35 AM 71.1 °F - 63.7 °F 77% 29.81 in 10.0 mi SSE 6.9 mph - N/A   Clear
9:55 AM 72.5 °F - 64.2 °F 75% 29.81 in 10.0 mi SSE 5.8 mph - N/A   Clear
10:15 AM 73.8 °F - 64.8 °F 73% 29.80 in 10.0 mi South 5.8 mph - N/A   Clear
10:35 AM 74.8 °F - 64.4 °F 70% 29.80 in 10.0 mi SSW 3.5 mph - N/A   Clear
10:55 AM 74.3 °F - 65.1 °F 73% 29.79 in 10.0 mi SE 8.1 mph - N/A   Scattered Clouds
11:15 AM 75.0 °F - 65.3 °F 72% 29.79 in 10.0 mi SE 6.9 mph - N/A   Scattered Clouds
11:35 AM 75.4 °F - 65.1 °F 70% 29.78 in 10.0 mi SSE 10.4 mph - N/A   Clear
11:55 AM 76.5 °F - 66.0 °F 70% 29.78 in 10.0 mi SSE 11.5 mph 16.1 mph N/A   Clear
12:15 PM 77.4 °F - 66.6 °F 69% 29.77 in 10.0 mi South 8.1 mph - N/A   Clear
12:35 PM 79.0 °F - 67.3 °F 67% 29.77 in 10.0 mi SSE 10.4 mph - N/A   Clear
12:55 PM 79.5 °F - 67.8 °F 67% 29.76 in 10.0 mi SSE 9.2 mph - N/A   Scattered Clouds
1:15 PM 78.6 °F - 67.8 °F 69% 29.76 in 10.0 mi South 11.5 mph - N/A   Scattered Clouds
1:35 PM 79.3 °F - 68.4 °F 69% 29.74 in 10.0 mi South 9.2 mph 17.3 mph N/A   Scattered Clouds
1:55 PM 81.0 °F 84.1 °F 68.9 °F 67% 29.73 in 10.0 mi South 10.4 mph 17.3 mph N/A   Mostly Cloudy
2:15 PM 82.6 °F 84.9 °F 66.4 °F 58% 29.73 in 10.0 mi SSW 13.8 mph 18.4 mph N/A   Mostly Cloudy
2:35 PM 83.5 °F 85.5 °F 65.7 °F 55% 29.71 in 10.0 mi SSW 10.4 mph 19.6 mph N/A   Mostly Cloudy
2:55 PM 83.5 °F 85.1 °F 64.9 °F 53% 29.71 in 10.0 mi SSW 10.4 mph 20.7 mph N/A   Scattered Clouds
3:15 PM 84.0 °F 85.4 °F 64.0 °F 51% 29.69 in 10.0 mi SSW 11.5 mph 20.7 mph N/A   Clear
3:35 PM 84.2 °F 86.1 °F 65.3 °F 53% 29.68 in 10.0 mi SSW 10.4 mph 19.6 mph N/A   Clear
3:55 PM 83.7 °F 85.8 °F 66.0 °F 55% 29.68 in 10.0 mi SW 13.8 mph 18.4 mph N/A   Clear
4:15 PM 83.8 °F 86.3 °F 66.4 °F 56% 29.68 in 10.0 mi SSW 9.2 mph 18.4 mph N/A   Scattered Clouds
4:35 PM 84.0 °F 86.5 °F 66.7 °F 56% 29.67 in 10.0 mi SW 9.2 mph - N/A   Mostly Cloudy
4:55 PM 84.2 °F 86.8 °F 66.9 °F 56% 29.67 in 10.0 mi SSW 9.2 mph - N/A   Mostly Cloudy
5:15 PM 83.1 °F 85.9 °F 67.3 °F 59% 29.67 in 10.0 mi SSW 11.5 mph 17.3 mph N/A   Mostly Cloudy
5:35 PM 82.6 °F 85.3 °F 67.3 °F 60% 29.66 in 10.0 mi SSW 8.1 mph - N/A   Scattered Clouds
5:55 PM 82.2 °F 85.1 °F 68.0 °F 62% 29.65 in 10.0 mi SSW 4.6 mph - N/A   Scattered Clouds
6:15 PM 81.5 °F 83.7 °F 66.4 °F 60% 29.65 in 10.0 mi SW 5.8 mph - N/A   Scattered Clouds
6:35 PM 79.9 °F - 66.4 °F 63% 29.65 in 10.0 mi SW 5.8 mph - N/A   Clear
6:55 PM 79.5 °F - 66.6 °F 64% 29.65 in 10.0 mi SSW 4.6 mph - N/A   Scattered Clouds
7:15 PM 79.0 °F - 67.1 °F 67% 29.65 in 10.0 mi South 4.6 mph - N/A   Scattered Clouds
7:35 PM 78.3 °F - 67.3 °F 69% 29.66 in 10.0 mi SW 4.6 mph - N/A   Clear
7:55 PM 77.9 °F - 67.3 °F 70% 29.64 in 10.0 mi SSW 3.5 mph - N/A   Clear
8:15 PM 77.7 °F - 67.3 °F 70% 29.65 in 10.0 mi Calm Calm - N/A   Clear
8:35 PM 77.0 °F - 67.8 °F 73% 29.66 in 10.0 mi Calm Calm - N/A   Scattered Clouds
8:55 PM 74.8 °F - 68.9 °F 82% 29.67 in 10.0 mi WSW 9.2 mph - N/A   Mostly Cloudy
9:15 PM 72.9 °F - 69.4 °F 89% 29.64 in 10.0 mi SW 11.5 mph 17.3 mph 0.03 in   Scattered Clouds
9:35 PM 70.9 °F - 65.7 °F 83% 29.63 in 10.0 mi SW 6.9 mph - 0.03 in   Clear
9:55 PM 70.2 °F - 67.1 °F 90% 29.66 in 10.0 mi SW 8.1 mph - 0.03 in   Clear
10:15 PM 70.7 °F - 68.0 °F 91% 29.63 in 10.0 mi SW 9.2 mph - N/A   Clear
10:35 PM 71.1 °F - 68.4 °F 91% 29.62 in 10.0 mi WSW 6.9 mph - N/A   Clear
10:55 PM 71.2 °F - 68.9 °F 92% 29.63 in 10.0 mi WNW 4.6 mph - N/A   Clear
11:15 PM 71.1 °F - 68.5 °F 92% 29.67 in 10.0 mi NW 5.8 mph - N/A   Scattered Clouds
11:35 PM 70.9 °F - 66.4 °F 86% 29.70 in 10.0 mi NNW 6.9 mph - N/A   Overcast
11:55 PM 70.2 °F - 65.5 °F 85% 29.71 in 10.0 mi NW 5.8 mph - N/A   Overcast